Weather History for Sparta, TN

Change the Weather History Date:

Thursday, February 13, 2014

  Actual Average (KCSV) Record (KCSV)
Temperature  
Mean Temperature 35 °F 39 °F  
Max Temperature 46 °F 48 °F 79 °F (1962)
Min Temperature 24 °F 30 °F -4 °F (1955)
Degree Days  
Heating Degree Days 30    
Month to date heating degree days  
Since 1 July heating degree days  
Cooling Degree Days 0    
Month to date cooling degree days  
Year to date cooling degree days  
Moisture  
Dew Point 20 °F    
Average Humidity 64    
Maximum Humidity 93    
Minimum Humidity 27    
Precipitation  
Precipitation 0.00 in 0.16 in 1.02 in (1984)
Month to date precipitation 2.06  
Year to date precipitation 6.82  
Sea Level Pressure  
Sea Level Pressure 29.82 in    
Wind  
Wind Speed 4 mph (NW)    
Max Wind Speed 9 mph    
Max Gust Speed -    
Visibility 10 miles    
Events      
T = Trace of Precipitation, MM = Missing Value Source: NWS Daily Summary

Daily Weather History Graph

Daily Weather History Graph

Search for Another Location

Airport:

Trip Planner

Search our weather history database for the weather conditions in past years. The results will help you decide how hot, cold, wet, or windy it might be!

Date:

Astronomy

Feb. 13, 2014 Rise Set
Actual Time 6:31 AM CST 5:21 PM CST
Civil Twilight 6:05 AM CST 5:47 PM CST
Nautical Twilight 5:35 AM CST 6:18 PM CST
Astronomical Twilight 5:05 AM CST 6:47 PM CST
Moon 4:29 PM CST (2/13) 5:23 AM CST (2/13)
Length of Visible Light 11h 42m
Length of Day
10h 49m
Waxing Gibbous, 99% of the Moon is Illuminated
Feb 13
Waxing Gibbous
Feb 14
Full
Feb 22
Last Quarter
Mar 1
New
Mar 8
First Quarter

Hourly Weather History & Observations

Time (CST) Temp. Windchill Dew Point Humidity Pressure Visibility Wind Dir Wind Speed Gust Speed Precip Events Conditions
12:55 AM 32.0 °F 28.7 °F 28.4 °F 87% 29.83 in 10.0 mi North 3.5 mph - N/A   Overcast
1:15 AM 30.2 °F 26.7 °F 28.4 °F 93% 29.82 in 10.0 mi North 3.5 mph - N/A   Overcast
1:35 AM 30.2 °F - 26.6 °F 86% 29.81 in 10.0 mi Calm Calm - N/A   Overcast
1:55 AM 30.2 °F 25.4 °F 26.6 °F 86% 29.81 in 10.0 mi North 4.6 mph - N/A   Overcast
2:15 AM 30.2 °F 25.4 °F 26.6 °F 86% 29.81 in 10.0 mi North 4.6 mph - N/A   Overcast
2:35 AM 30.2 °F 24.3 °F 24.8 °F 80% 29.81 in 10.0 mi North 5.8 mph - N/A   Overcast
2:55 AM 30.2 °F 24.3 °F 24.8 °F 80% 29.81 in 10.0 mi NNW 5.8 mph - N/A   Overcast
3:15 AM 30.2 °F - 24.8 °F 80% 29.80 in 10.0 mi Calm Calm - N/A   Overcast
3:35 AM 30.2 °F 26.7 °F 24.8 °F 80% 29.80 in 10.0 mi North 3.5 mph - N/A   Overcast
3:55 AM 30.2 °F 26.7 °F 24.8 °F 80% 29.80 in 10.0 mi North 3.5 mph - N/A   Mostly Cloudy
4:15 AM 28.4 °F - 24.8 °F 86% 29.81 in 10.0 mi Calm Calm - N/A   Partly Cloudy
4:35 AM 28.4 °F 23.3 °F 23.0 °F 80% 29.81 in 10.0 mi North 4.6 mph - N/A   Clear
4:55 AM 28.4 °F 24.6 °F 23.0 °F 80% 29.82 in 10.0 mi North 3.5 mph - N/A   Mostly Cloudy
5:15 AM 28.4 °F - 21.2 °F 74% 29.82 in 10.0 mi Calm Calm - N/A   Scattered Clouds
5:35 AM 28.4 °F 24.6 °F 21.2 °F 74% 29.83 in 10.0 mi North 3.5 mph - N/A   Mostly Cloudy
5:55 AM 26.6 °F 22.6 °F 21.2 °F 80% 29.85 in 10.0 mi NNW 3.5 mph - N/A   Overcast
6:15 AM 26.6 °F 21.2 °F 21.2 °F 80% 29.85 in 10.0 mi North 4.6 mph - N/A   Mostly Cloudy
6:35 AM 24.8 °F 20.5 °F 19.4 °F 80% 29.86 in 10.0 mi NNW 3.5 mph - N/A   Partly Cloudy
6:55 AM 24.8 °F - 19.4 °F 80% 29.86 in 10.0 mi Calm Calm - N/A   Partly Cloudy
7:15 AM 26.6 °F - 19.4 °F 74% 29.86 in 10.0 mi Calm Calm - N/A   Clear
7:35 AM 26.6 °F - 19.4 °F 74% 29.86 in 10.0 mi Calm Calm - N/A   Clear
7:55 AM 26.6 °F 21.2 °F 19.4 °F 74% 29.86 in 10.0 mi North 4.6 mph - N/A   Clear
8:15 AM 28.4 °F 22.2 °F 19.4 °F 69% 29.87 in 10.0 mi North 5.8 mph - N/A   Clear
8:35 AM 28.4 °F 21.2 °F 19.4 °F 69% 29.86 in 10.0 mi North 6.9 mph - N/A   Clear
8:55 AM 28.4 °F 22.2 °F 19.4 °F 69% 29.86 in 10.0 mi NNE 5.8 mph - N/A   Clear
9:15 AM 30.2 °F 24.3 °F 19.4 °F 64% 29.86 in 10.0 mi NNE 5.8 mph - N/A   Clear
9:35 AM 32.0 °F 27.5 °F 21.2 °F 64% 29.87 in 10.0 mi NNE 4.6 mph - N/A   Clear
9:55 AM 33.8 °F 29.6 °F 21.2 °F 60% 29.87 in 10.0 mi North 4.6 mph - N/A   Clear
10:15 AM 33.8 °F 27.7 °F 21.2 °F 60% 29.87 in 10.0 mi NW 6.9 mph - N/A   Clear
10:35 AM 35.6 °F 30.7 °F 21.2 °F 56% 29.86 in 10.0 mi Variable 5.8 mph - N/A   Clear
10:55 AM 37.4 °F 34.9 °F 19.4 °F 48% 29.86 in 10.0 mi NNW 3.5 mph - N/A   Clear
11:15 AM 37.4 °F 31.4 °F 19.4 °F 48% 29.86 in 10.0 mi NNW 8.1 mph - N/A   Clear
11:35 AM 39.2 °F 33.0 °F 17.6 °F 42% 29.86 in 10.0 mi NNW 9.2 mph - N/A   Clear
11:55 AM 39.2 °F 35.0 °F 15.8 °F 39% 29.85 in 10.0 mi Variable 5.8 mph - N/A   Clear
12:15 PM 41.0 °F 36.4 °F 15.8 °F 36% 29.84 in 10.0 mi North 6.9 mph - N/A   Clear
12:35 PM 42.8 °F 39.3 °F 15.8 °F 34% 29.83 in 10.0 mi North 5.8 mph - N/A   Clear
12:55 PM 42.8 °F 37.5 °F 12.2 °F 29% 29.82 in 10.0 mi WNW 9.2 mph - N/A   Clear
1:35 PM 44.6 °F 39.7 °F 12.2 °F 27% 29.81 in 10.0 mi NW 9.2 mph - N/A   Clear
1:55 PM 46.4 °F 41.9 °F 14.0 °F 27% 29.81 in 10.0 mi WNW 9.2 mph - N/A   Clear
2:15 PM 46.4 °F 44.3 °F 14.0 °F 27% 29.80 in 10.0 mi Variable 4.6 mph - N/A   Clear
2:35 PM 46.4 °F 42.9 °F 15.8 °F 29% 29.80 in 10.0 mi North 6.9 mph - N/A   Clear
2:55 PM 46.4 °F 43.5 °F 14.0 °F 27% 29.80 in 10.0 mi NW 5.8 mph - N/A   Clear
3:15 PM 46.4 °F 43.5 °F 14.0 °F 27% 29.80 in 10.0 mi NW 5.8 mph - N/A   Clear
3:35 PM 46.4 °F 41.9 °F 15.8 °F 29% 29.80 in 10.0 mi WNW 9.2 mph - N/A   Clear
3:55 PM 46.4 °F - 15.8 °F 29% 29.79 in 10.0 mi Calm Calm - N/A   Clear
4:15 PM 46.4 °F - 15.8 °F 29% 29.79 in 10.0 mi Calm Calm - N/A   Clear
4:35 PM 46.4 °F 45.2 °F 15.8 °F 29% 29.79 in 10.0 mi NNW 3.5 mph - N/A   Clear
4:55 PM 44.6 °F 43.1 °F 15.8 °F 31% 29.79 in 10.0 mi West 3.5 mph - N/A   Clear
5:15 PM 42.8 °F 41.1 °F 15.8 °F 34% 29.80 in 10.0 mi West 3.5 mph - N/A   Clear
5:35 PM 35.6 °F - 19.4 °F 52% 29.80 in 10.0 mi Calm Calm - N/A   Clear
5:55 PM 30.2 °F - 23.0 °F 75% 29.79 in 10.0 mi Calm Calm - N/A   Clear
6:15 PM 28.4 °F - 17.6 °F 64% 29.79 in 10.0 mi Calm Calm - N/A   Clear
6:35 PM 26.6 °F - 19.4 °F 74% 29.79 in 10.0 mi Calm Calm - N/A   Clear
6:55 PM 24.8 °F 19.1 °F 17.6 °F 74% 29.79 in 10.0 mi WSW 4.6 mph - N/A   Clear
7:15 PM 28.4 °F 23.3 °F 17.6 °F 64% 29.79 in 10.0 mi SW 4.6 mph - N/A   Clear
7:35 PM 30.2 °F 26.7 °F 19.4 °F 64% 29.79 in 10.0 mi SW 3.5 mph - N/A   Clear
7:55 PM 28.4 °F 24.6 °F 17.6 °F 64% 29.80 in 10.0 mi SW 3.5 mph - N/A   Clear
8:15 PM 28.4 °F 22.2 °F 19.4 °F 69% 29.80 in 10.0 mi SW 5.8 mph - N/A   Clear
8:35 PM 28.4 °F 23.3 °F 21.2 °F 74% 29.80 in 10.0 mi SW 4.6 mph - N/A   Clear
8:55 PM 30.2 °F 23.4 °F 23.0 °F 75% 29.80 in 10.0 mi SSW 6.9 mph - N/A   Clear
9:15 PM 32.0 °F 26.4 °F 24.8 °F 75% 29.81 in 10.0 mi SW 5.8 mph - N/A   Clear
9:35 PM 30.2 °F 25.4 °F 24.8 °F 80% 29.81 in 10.0 mi SW 4.6 mph - N/A   Clear
9:55 PM 30.2 °F 24.3 °F 24.8 °F 80% 29.81 in 10.0 mi SW 5.8 mph - N/A   Clear
10:15 PM 28.4 °F - 24.8 °F 86% 29.81 in 10.0 mi Calm Calm - N/A   Clear
10:35 PM 24.8 °F - 21.2 °F 86% 29.82 in 10.0 mi Calm Calm - N/A   Clear
10:55 PM 26.6 °F 21.2 °F 24.8 °F 93% 29.84 in 10.0 mi SSW 4.6 mph - N/A   Clear
11:15 PM 28.4 °F 24.6 °F 24.8 °F 86% 29.84 in 10.0 mi SSW 3.5 mph - N/A   Clear
11:35 PM 28.4 °F 23.3 °F 24.8 °F 86% 29.84 in 10.0 mi SSW 4.6 mph - N/A   Clear
11:55 PM 30.2 °F 25.4 °F 24.8 °F 80% 29.83 in 10.0 mi South 4.6 mph - N/A   Clear